155P/Shoemaker 3 (2019)

Japanese version
Home page
Updated on February 21, 2021

---------------------------------------------------------------------

* Profile

* Pictures

* Orbital Elements

Epoch 2020 May 31.0 TT = JDT 2459000.5                                          
T 2019 Nov. 14.99679 TT                                 Spoto                   
q   1.8017912            (2000.0)            P               Q                  
n   0.05830732     Peri.   14.65681     -0.37069444     -0.92215557             
a   6.5864893      Node    97.19806     +0.84051130     -0.38371650             
e   0.7264413      Incl.    6.39592     +0.39512831     -0.04889523             
P  16.9                                                                         
From 1927 observations 1986 Jan. 10-2020 May 22, mean residual 0".7.            
     Nongravitational parameters A1 = +0.53, A2 = -0.0806.                      

* Finding Charts

* Magnitudes Graph

        m1 = 7.5 + 5 log d + 25.0 log r

---------------------------------------------------------------------

The orbital elements are published on M.P.E.C. 2020-S188.
The charts are made with StellaNavigator Ver.10 (AstroArts).
The magnitudes graphs are made with Comet for Windows.

---------------------------------------------------------------------

Copyright(C) Seiichi Yoshida (comet@aerith.net). All rights reserved.